This is the latest recevied weather packets stored in our database for station/object OE6PLD-13. If no packets are shown the sender has not sent any weather packets the latest 10 day(s).
| Time | Temp. | Humidity | Pressure | Rain* | Wind** | Luminosity | Snow |
|---|---|---|---|---|---|---|---|
| 1777883030 | 19.44° C | 55% | 1012.2 hPa | 0.76 mm | - | 589 W/m² | - |
| 1777882847 | 20° C | 54% | 1012.2 hPa | 0.76 mm | - | 696 W/m² | - |
| 1777882663 | 19.44° C | 55% | 1012.2 hPa | 0.76 mm | - | 727 W/m² | - |
| 1777882480 | 19.44° C | 54% | 1012.3 hPa | 0.76 mm | - | 752 W/m² | - |
| 1777882297 | 19.44° C | 56% | 1012.2 hPa | 0.76 mm | - | 713 W/m² | - |
| 1777882113 | 18.89° C | 57% | 1012.3 hPa | 0.76 mm | - | 644 W/m² | - |
| 1777881930 | 18.89° C | 57% | 1012.4 hPa | 0.76 mm | - | 637 W/m² | - |
| 1777881747 | 19.44° C | 56% | 1012.4 hPa | 0.76 mm | - | 572 W/m² | - |
| 1777881563 | 18.89° C | 58% | 1012.3 hPa | 0.76 mm | - | 568 W/m² | - |
| 1777881380 | 18.89° C | 59% | 1012.3 hPa | 0.76 mm | - | 620 W/m² | - |
| 1777881197 | 18.89° C | 58% | 1012.3 hPa | 0.76 mm | - | 582 W/m² | - |
| 1777881013 | 18.33° C | 59% | 1012.4 hPa | 0.76 mm | - | 466 W/m² | - |
| 1777880830 | 17.78° C | 60% | 1012.3 hPa | 0.76 mm | - | 520 W/m² | - |
| 1777880647 | 17.22° C | 61% | 1012.5 hPa | 0.76 mm | - | 493 W/m² | - |
| 1777880463 | 17.22° C | 61% | 1012.5 hPa | 0.76 mm | - | 413 W/m² | - |
| 1777880280 | 17.78° C | 60% | 1012.4 hPa | 0.76 mm | - | 327 W/m² | - |
| 1777880096 | 17.22° C | 60% | 1012.2 hPa | 0.76 mm | - | 339 W/m² | - |
| 1777879913 | 17.78° C | 60% | 1012.4 hPa | 0.76 mm | - | 401 W/m² | - |
| 1777879729 | 17.78° C | 60% | 1012.3 hPa | 0.76 mm | - | 520 W/m² | - |
| 1777879546 | 17.78° C | 60% | 1012.2 hPa | 0.76 mm | - | 488 W/m² | - |
| 1777879363 | 17.22° C | 60% | 1012.1 hPa | 0.76 mm | - | 489 W/m² | - |
| 1777879180 | 17.22° C | 61% | 1012.5 hPa | 0.76 mm | - | 416 W/m² | - |
| 1777878996 | 17.78° C | 59% | 1012.5 hPa | 0.76 mm | - | 441 W/m² | - |
| 1777878813 | 17.78° C | 60% | 1012.2 hPa | 0.76 mm | - | 432 W/m² | - |
| 1777878629 | 17.22° C | 60% | 1012.2 hPa | 0.76 mm | - | 391 W/m² | - |
* Rain latest hour (hover to see other rain measurements)
** Current wind speed in m/s (hover to see current wind gust speed)